Location: Claudon
(48.0329°N, 6.0354°E)
Time: 14:45:31
(UTC+00:00)

Daily predictions for brighter satellites

Satellite Brightness Start Highest point End
(mag) Time Altitude Azimuth Time Altitude Azimuth Time Altitude Azimuth
ATLAS 3B R/B 3.0 19:39:57 10° NW 19:47:01 69° NE 19:54:21 10° SE
RESURS DK-1 2.5 19:48:42 10° S 19:52:44 51° ESE 19:56:47 10° NE
Cosmos 1633 3.0 19:49:38 10° SSE 19:53:02 41° E 19:56:27 10° NNE
OBJECT-B 2.9 19:51:28 10° SSW 19:54:14 27° W 19:57:02 10° NW
IRS-1A Rocket 4.4 19:50:42 10° SSE 19:56:13 77° WSW 20:01:46 10° NNW
Cosmos 2369 3.9 19:51:53 10° NNW 19:57:31 73° WSW 20:03:09 10° SSE
Cosmos 2151 4.0 19:54:13 10° SSE 19:57:50 28° E 20:01:30 10° NNE
USA 276 2.5 19:55:45 10° WNW 19:58:54 63° N 20:02:02 10° E
Cosmos 1825 3.4 19:55:47 10° SSW 19:59:23 46° WNW 20:03:02 10° N
Cosmos 1980 Rocket 2.2 19:53:59 10° NNW 19:59:38 88° ENE 20:05:18 10° SSE
Cosmos 1437 4.2 19:58:39 10° NNW 20:01:09 30° W 20:03:37 10° SSW
BREEZE-M DEB (TANK) 3.6 19:59:02 10° SSW 20:02:23 42° SE 20:12:30 10° ENE
Cosmos 1933 4.4 19:59:54 10° N 20:03:31 30° ENE 20:07:06 10° SE
Cosmos 1242 Rocket 4.3 20:00:37 10° NNW 20:03:51 32° W 20:07:02 10° SSW
ERS-1 Rocket 4.2 20:01:06 10° ESE 20:05:14 26° ENE 20:09:23 10° N
COSMOS 2406 3.7 19:59:58 10° SW 20:05:37 67° WNW 20:11:21 10° NNE
SPOT 5 4.1 20:02:46 10° ESE 20:06:09 23° ENE 20:09:34 10° N
MetOp-B 4.3 20:01:58 10° SSE 20:07:15 63° ENE 20:12:33 10° N
ARIANE 5 R/B 3.8 20:03:51 10° SE 20:07:41 29° ENE 20:11:31 10° N
Terra 3.5 20:05:12 10° ESE 20:08:38 20° ENE 20:12:03 10° NNE
Cosmos 2322 Rocket 3.4 20:04:31 10° NNW 20:09:28 30° NE 20:14:22 10° ESE
SPOT 3 Rocket 3.6 20:05:22 10° SSE 20:10:34 76° ENE 20:15:49 10° NNW
Gbstr 26 Del rocket 3.0 20:09:58 10° WNW 20:13:41 64° NNE 20:17:37 10° E
Spot 2 Rocket 4.0 20:11:55 10° SE 20:16:45 45° ENE 20:21:37 10° N
Meteor 2-3 Rocket 4.2 20:14:14 10° SSE 20:19:30 42° E 20:24:51 10° NNE
Cosmos 332 Rocket 4.0 20:19:32 10° NNW 20:24:23 61° ENE 20:28:37 14° SE
ISS -3.7 20:22:39 10° WNW 20:26:03 75° SSW 20:28:39 16° ESE
Cosmos 1076 Rocket 3.6 20:22:39 10° S 20:27:00 86° W 20:31:24 10° N
ERS-2 2.8 20:23:27 10° N 20:27:02 56° WNW 20:30:36 10° SSW
Cosmos 1151 Rocket 4.2 20:24:16 10° N 20:28:05 29° ENE 20:31:00 15° SE
USA 234 4.3 20:23:43 10° ENE 20:29:49 43° N 20:35:56 10° WNW
Cosmos 1092 Rocket 4.2 20:25:27 10° SSE 20:31:31 57° E 20:37:42 10° NNE
Cosmos 2219 Rocket 4.4 20:28:33 10° N 20:31:47 15° NE 20:35:00 10° ENE
Landsat 7 4.3 20:28:46 10° S 20:33:27 60° WSW 20:38:11 10° NNW
Cosmos 1782 3.6 20:29:45 10° N 20:33:31 37° ENE 20:36:12 17° SE
Cosmos 1538 Rocket 3.9 20:32:15 10° SSW 20:37:28 82° ESE 20:42:40 10° NNE
SL-16 R/B 2.5 20:31:58 10° NNW 20:37:34 55° ENE 20:42:00 16° SE
Meteor 2-19 Rocket 4.4 20:33:45 10° S 20:39:46 74° E 20:45:49 10° NNE
Cosmos 2098 Rocket 3.2 20:40:06 10° SSW 20:43:06 50° WNW 20:46:38 10° N
Cosmos 2026 Rocket 4.1 20:39:39 10° S 20:45:51 59° E 20:52:00 10° NNE
Cosmos 1271 Rocket 2.8 20:43:14 10° N 20:47:14 71° ENE 20:50:02 19° SSE
GP-B 3.1 20:46:38 10° N 20:51:04 66° E 20:54:30 16° S
CZ-2C R/B 3.6 20:46:32 10° NNE 20:51:07 89° ESE 20:55:35 10° SSW
Nadezhda 4 Rocket 4.4 20:47:05 10° SSW 20:53:11 65° WNW 20:59:25 10° N
Cosmos 1627 Rocket 4.5 20:53:00 10° S 20:59:20 76° E 21:05:38 10° NNE
ATLAS 5 CENTAUR R/B 4.1 20:57:18 10° NNW 21:01:10 21° NNE 21:05:30 10° ENE
Cosmos 304 Rocket 3.9 20:56:53 10° NNW 21:01:40 70° WSW 21:05:02 19° S
Okean 3 Rocket 3.8 21:04:43 22° SSE 21:07:24 53° E 21:11:48 10° NNE
SPOT 1/Viking Rocket 4.4 21:02:31 10° S 21:07:31 48° W 21:12:34 10° NNW
Cosmos 2082 Rocket 3.6 21:05:52 10° WSW 21:11:10 41° NW 21:16:32 10° NNE
Cosmos 220 Rocket 4.2 21:09:39 10° NNW 21:13:58 61° ENE 21:16:06 28° SE
Cosmos 1428 Rocket 4.5 21:09:42 10° S 21:15:51 85° W 21:22:01 10° N
Resurs 01 Rocket 3.9 21:14:38 10° SW 21:17:54 20° W 21:21:11 10° NW
BREEZE-M DEB (TANK) 3.4 21:15:25 10° W 21:18:45 44° SSW 21:23:01 22° SE
Cosmos 2360 Rocket 2.5 21:16:49 10° NNW 21:22:23 56° ENE 21:25:36 25° SE
Cosmos 923 Rocket 4.0 21:18:35 10° SSW 21:23:56 90° WNW 21:29:19 10° NNE
Meteor 1-10 Rocket 4.5 21:19:48 10° N 21:25:15 53° ENE 21:28:05 27° SE
Cosmos 1408 Rocket 4.0 21:24:14 31° SE 21:25:43 43° E 21:29:50 10° NNE
Cosmos 1553 Rocket 3.9 21:20:37 10° N 21:26:44 80° E 21:30:29 25° SSE
Cosmos 2333 Rocket 3.3 21:24:07 10° NNW 21:29:19 35° NE 21:32:47 19° ESE
ATLAS 2AS CENTAUR R/B 4.3 21:23:06 10° WSW 21:30:33 43° NNW 21:37:44 10° NE
Meteor 2-14 Rocket 4.4 21:27:36 21° S 21:31:49 72° E 21:37:57 10° NNE
Cosmos 2266 Rocket 4.5 21:29:46 26° SE 21:32:39 42° E 21:38:27 10° NNE
Cosmos 2056 Rocket 3.5 21:29:37 10° NNW 21:35:01 78° ENE 21:37:36 31° SSE
USA 276 2.5 21:32:01 10° WNW 21:35:04 46° SSW 21:35:05 46° SSW
Cosmos 1812 2.6 21:32:03 10° N 21:35:55 88° W 21:37:16 39° S
ATLAS 3B R/B 4.0 21:31:09 10° NW 21:37:21 33° WSW 21:42:22 15° SSW
USA 267 3.5 21:31:16 10° ENE 21:37:31 45° SE 21:43:44 10° SSW
Cosmos 2228 Rocket 4.2 21:38:42 10° N 21:42:37 30° ENE 21:43:53 26° ESE
Cosmos 1980 Rocket 4.5 21:39:38 10° WNW 21:42:50 16° W 21:46:02 10° SW
ERS-1 Rocket 3.7 21:40:38 21° SSW 21:43:47 47° W 21:48:39 10° NNW
Cosmos 2084 3.4 21:42:47 41° S 21:43:48 53° SE 21:47:52 10° NE
SPOT 5 3.5 21:41:38 22° SSW 21:44:01 42° W 21:48:11 10° NNW
ARIANE 5 R/B 3.9 21:41:12 17° SSW 21:44:03 35° W 21:48:09 10° NNW
SL-27 R/B 2.6 21:44:33 49° ESE 21:44:45 50° ESE 21:48:16 10° NNE
Terra 2.1 21:43:31 28° S 21:45:57 60° W 21:50:42 10° NNW
NOSS 2-1 (C) 3.1 21:46:53 50° E 21:46:53 50° E 21:49:48 10° NE
Cosmos 1655 Rocket 4.1 21:43:54 28° SSE 21:47:14 61° E 21:53:33 10° NNE
Cosmos 1515 Rocket 3.5 21:43:46 10° N 21:48:15 80° E 21:49:44 41° SSE
Cosmos 2237 Rocket 4.3 21:48:15 10° N 21:52:08 18° NE 21:56:01 10° E
Cosmos 2322 Rocket 2.6 21:48:20 10° NW 21:53:51 55° WSW 21:56:28 30° S
NOSS 2-1 (D) 2.7 21:54:20 65° ESE 21:54:20 65° ESE 21:57:32 10° NE
Cosmos 1371 Rocket 4.2 21:51:02 10° NNW 21:56:22 65° WSW 21:58:42 33° S
S3M 4.0 21:49:58 10° N 21:56:25 89° E 21:59:44 31° S
Cosmos 2112 Rocket 4.2 21:54:10 15° SSW 21:58:39 72° WNW 22:03:56 10° NNE
H-2A R/B 3.4 21:54:54 10° NNE 21:59:07 89° WNW 22:00:38 39° SSW
Cosmos 1680 Rocket 3.9 21:54:17 10° SW 21:59:30 62° WNW 22:04:44 10° NNE
Gbstr 26 Del rocket 3.5 21:56:48 10° WNW 22:00:20 36° SW 22:00:26 36° SSW
ISS -1.4 22:00:22 10° W 22:01:36 14° WSW 22:01:36 14° WSW
Cosmos 1862 3.6 22:02:44 34° SW 22:04:16 61° WNW 22:08:14 10° N
COSMOS 2455 3.4 22:05:55 35° SE 22:07:09 39° ESE 22:12:40 10° NE
USA 234 3.4 22:07:28 19° ESE 22:12:21 73° NNE 22:18:54 10° NW
ALOS 2 3.7 22:13:01 28° E 22:14:09 33° ENE 22:18:05 10° N
Cosmos 2219 Rocket 2.4 22:11:24 10° NNW 22:16:58 61° ENE 22:19:12 35° ESE
COBE Rocket 3.7 22:16:53 49° SE 22:18:05 74° ENE 22:22:46 10° N
IRIDIUM 106 4.3 22:14:54 10° N 22:20:09 76° E 22:21:45 45° SSE
SL-16 R/B 3.6 22:16:39 10° NW 22:21:20 27° WSW 22:23:52 20° SW
Cosmos 2333 4.1 22:17:43 10° NNW 22:23:22 89° WSW 22:25:16 44° SSE
COSMOS 2428 3.0 22:21:46 10° NNW 22:27:26 61° ENE 22:29:40 36° ESE
Cosmos 1805 Rocket 3.5 22:32:29 60° SE 22:33:04 68° E 22:37:29 10° NNE
Cosmos 292 Rocket 4.1 22:29:13 10° NNW 22:33:51 53° WSW 22:34:52 44° SSW
Cosmos 1048 Rocket 4.1 22:36:20 47° SE 22:37:02 51° ESE 22:42:00 10° NNE
Cosmos 1515 4.0 22:34:02 10° N 22:37:43 51° ENE 22:37:43 51° ENE
CZ-3B R/B 2.2 22:34:48 10° WNW 22:43:37 86° NNE 22:44:25 56° ESE
Cosmos 1500 Rocket 4.1 22:43:12 40° SW 22:44:25 54° WNW 22:48:47 10° N
ATLAS 5 CENTAUR R/B 2.6 22:41:23 10° NW 22:46:45 61° NE 22:49:59 28° ESE
Meteor 1-27 Rocket 4.1 22:43:00 10° NNW 22:48:30 55° W 22:50:25 38° SSW
NOSS 2-1 (E) 4.3 22:51:16 27° W 22:52:27 38° NW 22:55:48 10° NNE
NOSS 3-1 (C) 4.1 22:47:40 10° NW 22:55:07 68° SW 22:58:46 37° SSE
Cosmos 972 Rocket 4.0 22:55:32 43° SSW 22:57:20 77° WNW 23:02:23 10° NNE
NOSS 0 Rocket 4.2 22:51:36 10° NNW 22:57:50 63° ENE 23:00:28 35° SE
Cosmos 1666 4.4 23:02:00 23° ENE 23:02:00 23° ENE 23:04:40 10° NE
Cosmos 2285 Rocket 4.0 22:56:36 10° NNW 23:02:52 68° WSW 23:04:48 45° S
Thor Agena Rocket 4.4 23:01:03 10° NNE 23:05:33 32° E 23:06:01 31° ESE
Cosmos 2360 Rocket 3.5 23:01:26 10° NW 23:06:00 26° WSW 23:07:21 24° SW
Cosmos 2315 Rocket 4.5 23:00:51 10° NNW 23:06:56 52° W 23:09:19 35° SW
Meteor 1-20 Rocket 4.2 23:05:25 48° SSW 23:07:03 83° W 23:12:47 10° N
Cosmos 1452 Rocket 3.8 23:02:28 10° NNW 23:07:34 52° WSW 23:08:29 46° SW
USA 229 DEB 3.8 23:01:28 10° NW 23:08:48 81° SW 23:12:08 38° SSE
USA 229 3.8 23:01:34 10° NW 23:08:54 82° SW 23:12:15 38° SSE
Cosmos 1470 Rocket 4.4 23:11:57 37° E 23:11:57 37° E 23:15:57 10° NNE
COSMOS 2487 3.3 23:13:20 45° NW 23:13:20 45° NW 23:16:24 10° N
Cosmos 2333 Rocket 2.7 23:08:21 10° NW 23:13:43 45° WSW 23:14:46 40° SW
Cosmos 1980 4.1 23:08:12 10° NNW 23:13:47 56° ENE 23:16:00 35° ESE
Sich 1 3.3 23:14:38 52° WSW 23:15:13 58° WNW 23:19:32 10° N
Cosmos 2084 Rocket 4.2 23:11:45 10° NNW 23:15:48 46° NE 23:17:04 35° E
Cosmos 1633 Rocket 2.9 23:17:04 72° ESE 23:17:14 73° E 23:21:36 10° NNE
APEX 4.4 23:16:51 49° SSE 23:17:51 55° ESE 23:24:12 10° NE
Cosmos 1340 Rocket 4.4 23:19:57 24° E 23:19:57 24° E 23:22:45 10° NE
Cosmos 1666 Rocket 3.4 23:20:10 77° SSW 23:20:28 87° W 23:24:57 10° N
USA 267 3.5 23:14:14 10° NE 23:20:46 71° NNW 23:27:16 10° WSW
Cosmos 2228 Rocket 4.4 23:16:57 10° NNW 23:20:46 29° W 23:21:21 28° WSW
Cosmos 489 Rocket 4.5 23:20:59 40° SSW 23:23:26 81° WNW 23:29:50 10° NNE
SL-08 R/B 4.4 23:21:43 48° S 23:23:34 80° E 23:29:46 10° N
Cosmos 2322 4.4 23:19:38 10° NW 23:24:55 39° WSW 23:25:54 36° SW
PSLV R/B 4.5 23:20:48 10° NNE 23:25:18 40° E 23:25:38 39° ESE
NOSS 3-1 (A) 4.1 23:21:47 10° NW 23:29:14 67° SW 23:32:41 39° SSE
Meteor 1-18 Rocket 4.3 23:25:03 10° NNW 23:30:56 76° W 23:32:22 52° S
Cosmos 2297 Rocket 2.7 23:32:09 39° SE 23:32:49 41° ESE 23:38:06 10° NE
CZ-4C R/B 4.3 23:27:06 10° NW 23:33:11 35° NNE 23:40:18 10° E
Cosmos 1110 Rocket 4.2 23:29:38 10° NNW 23:34:52 58° WSW 23:35:37 52° SW
Cosmos 2237 Rocket 2.2 23:31:29 10° NNW 23:37:12 76° ENE 23:38:58 45° SE
Okean 1 4.0 23:33:41 10° NNW 23:37:21 45° W 23:37:21 45° W
Cosmos 1331 Rocket 4.1 23:36:08 10° NNW 23:41:16 56° WSW 23:41:53 52° SW
Cosmos 1862 Rocket 3.6 23:38:37 10° NNW 23:42:56 65° W 23:43:02 65° WSW
Cosmos 1500 3.6 23:44:24 56° WNW 23:44:24 56° WNW 23:48:03 10° N
Cosmos 2227 Rocket 2.9 23:43:37 36° SE 23:44:21 38° ESE 23:49:33 10° NE
Cosmos 1745 Rocket 3.9 23:43:09 49° S 23:44:59 81° E 23:51:18 10° N
ALOS 2 3.8 23:50:25 29° W 23:50:29 29° W 23:54:20 10° NW
COSMOS 2455 3.7 23:49:00 20° WSW 23:53:00 47° NW 23:58:50 10° NNE
MINOTAUR IV R/B 4.4 23:49:39 10° NNW 23:54:14 83° WSW 23:54:29 78° SSW
